Aeroporto :
LOGIN :

Iscrizione | Disclaimer

   EN    FR    IT 

 










Sommario :    VFR   VFR Marginale   IFR   IFR Intensivo   IFR Molto Intensivo
Visibilità : 
Base nubi : 
>= 8 km
>= 3000ft
5 / 8 km
1000 / 3000 ft
1500m / 5 km
500 / 1000 ft
800 / 1500m
200 / 500 ft
< 800m
< 200 ft
Simboli :   Temporali  Nebbia  Neve Forte  Precipitazioni Forti  Vento > 20 kt
SIGMETs :   Varie  Temporali  Ghiacco  Turbolenza  Onda orograficha  Ceneri Vulcaniche






- Altitudine del aeroporto : 44 ft
- Codice IATA : SOU


EGHI - Southampton

ULTIMO METAR :
  • 061650Z 26013KT 220V290 9999 BKN022 13/07 Q1001

METARs OBSOLETI :
  • 061620Z 27010KT 230V300 9999 BKN025 13/08 Q1001
  • 061550Z 25011KT 220V280 9999 -SHRA BKN025 13/07 Q1001
  • 061520Z 25012KT 210V280 9999 BKN024 13/07 Q1000
  • 061450Z 26011G22KT 220V300 9999 BKN024 13/07 Q1001

TAF TAF EGHI
Valido dal 06 a 15 ore il 06 a 19 ore UTC


061434Z 0615/0619 27014KT 9999 SCT020
PROB30
TEMPO 0615/0618 28017G27KT 7000 SHRA
ATIS : +44 23 8062 7103



MetMap, La meteo Aeronautica in un colpo d'occhio ! - Copyright ORBIFLY Dicembre 2007 - Disclaimer

ORBIFLY MET'MAP TEAM :

Programmazione e sviluppo : Alexandra Zaïnal
Concezione : Baudouin d'Aumeries
Aiuto per la programmazione : Marc-Olivier Méhu
Supporto tecnico e logistico : Manuel Goepfert
Aiuto per la traduzione : Arnaldo La Scala

Contatto : metmap@orbifly.com




FONTI E CREDITI :

   NOAA